| time (UTC) | temp F | wind direction | speed MPH | gust MPH | rain 1hr in | rain 24hr in | rain mn in | humidity % | barometer mb |
| 20260507191850 | 52 | 44 | 2.0 | 3.0 | 0.12 | 1.24 | 1.24 | 99 | 1009.9 |
| 20260507191346 | 52 | 49 | 0.0 | 0.0 | 0.12 | 1.23 | 1.23 | 99 | 1009.7 |
| 20260507190843 | 52 | 35 | 4.0 | 7.0 | 0.07 | 1.22 | 1.22 | 99 | 1010.0 |
| 20260507190341 | 52 | 50 | 6.0 | 9.0 | 0.12 | 1.22 | 1.22 | 99 | 1010.2 |
| 20260507185840 | 52 | 24 | 6.0 | 8.0 | 0.12 | 1.21 | 1.21 | 99 | 1010.2 |
| 20260507185337 | 52 | 332 | 3.0 | 4.0 | 0.14 | 1.20 | 1.20 | 99 | 1010.0 |
| 20260507184833 | 52 | 44 | 1.0 | 2.0 | 0.12 | 1.19 | 1.19 | 99 | 1010.5 |
| 20260507184331 | 52 | 18 | 5.0 | 6.0 | 0.12 | 1.18 | 1.18 | 99 | 1010.6 |
| 20260507183828 | 52 | 23 | 8.0 | 11.0 | 0.12 | 1.17 | 1.17 | 99 | 1010.7 |
| 20260507183325 | 52 | 26 | 6.0 | 7.0 | 0.12 | 1.16 | 1.16 | 99 | 1010.6 |
| 20260507182823 | 53 | 35 | 4.0 | 6.0 | 0.12 | 1.15 | 1.15 | 99 | 1010.2 |
| 20260507182318 | 52 | 43 | 3.0 | 3.0 | 0.12 | 1.14 | 1.14 | 99 | 1010.1 |
| 20260507181815 | 53 | 90 | 4.0 | 6.0 | 0.12 | 1.13 | 1.13 | 99 | 1009.9 |
| 20260507181311 | 53 | 46 | 2.0 | 2.0 | 0.12 | 1.12 | 1.12 | 99 | 1009.8 |
| 20260507180808 | 53 | 279 | 5.0 | 7.0 | 0.12 | 1.11 | 1.11 | 99 | 1010.0 |
| 20260507180305 | 52 | 220 | 3.0 | 4.0 | 0.12 | 1.10 | 1.10 | 99 | 1010.1 |
| 20260507175800 | 52 | 72 | 7.0 | 9.0 | 0.14 | 1.09 | 1.09 | 99 | 1010.4 |
| 20260507175257 | 52 | 39 | 4.0 | 6.0 | 0.12 | 1.08 | 1.08 | 99 | 1010.8 |
| 20260507174754 | 52 | 34 | 4.0 | 6.0 | 0.12 | 1.07 | 1.07 | 99 | 1011.4 |
| 20260507174252 | 52 | 49 | 2.0 | 3.0 | 0.12 | 1.06 | 1.06 | 99 | 1011.7 |
| 20260507173750 | 52 | 20 | 0.0 | 1.0 | 0.12 | 1.05 | 1.05 | 99 | 1011.4 |
| 20260507173247 | 52 | 24 | 2.0 | 3.0 | 0.12 | 1.04 | 1.04 | 99 | 1011.1 |
| 20260507172743 | 52 | 320 | 4.0 | 7.0 | 0.17 | 1.03 | 1.03 | 99 | 1011.2 |
| 20260507172240 | 52 | 39 | 2.0 | 3.0 | 0.19 | 1.02 | 1.02 | 99 | 1011.6 |
| 20260507171735 | 53 | 16 | 2.0 | 3.0 | 0.17 | 1.01 | 1.01 | 99 | 1011.9 |
| 20260507171233 | 53 | 51 | 2.0 | 3.0 | 0.12 | 0.99 | 0.99 | 99 | 1012.0 |
| 20260507170729 | 52 | 35 | 2.0 | 2.0 | 0.12 | 0.98 | 0.98 | 99 | 1012.0 |
| 20260507170226 | 52 | 98 | 2.0 | 3.0 | 0.12 | 0.97 | 0.97 | 99 | 1011.5 |
| 20260507165721 | 52 | 52 | 4.0 | 4.0 | 0.19 | 0.96 | 0.96 | 99 | 1011.6 |
| 20260507165218 | 52 | 56 | 4.0 | 7.0 | 0.19 | 0.95 | 0.95 | 99 | 1011.7 |
| 20260507164714 | 52 | 48 | 3.0 | 6.0 | 0.17 | 0.94 | 0.94 | 99 | 1011.6 |
| 20260507164212 | 52 | 21 | 7.0 | 8.0 | 0.12 | 0.92 | 0.92 | 99 | 1011.9 |
| 20260507163709 | 52 | 14 | 2.0 | 3.0 | 0.12 | 0.91 | 0.91 | 99 | 1011.7 |
| 20260507163206 | 52 | 34 | 6.0 | 8.0 | 0.12 | 0.90 | 0.90 | 99 | 1011.3 |
| 20260507162701 | 51 | 13 | 2.0 | 3.0 | 0.12 | 0.89 | 0.89 | 99 | 1011.1 |
| 20260507162157 | 51 | 286 | 4.0 | 6.0 | 0.12 | 0.88 | 0.88 | 99 | 1011.9 |
| 20260507161654 | 51 | 26 | 3.0 | 4.0 | 0.19 | 0.87 | 0.87 | 99 | 1012.1 |
| 20260507161145 | 51 | 50 | 2.0 | 3.0 | 0.17 | 0.86 | 0.86 | 99 | 1011.3 |
| 20260507160642 | 51 | 259 | 6.0 | 8.0 | 0.12 | 0.84 | 0.84 | 99 | 1010.9 |
| 20260507160138 | 52 | 97 | 7.0 | 9.0 | 0.14 | 0.83 | 0.83 | 99 | 1011.1 |
| 20260507155634 | 52 | 61 | 2.0 | 3.0 | 0.12 | 0.82 | 0.82 | 99 | 1011.6 |
| 20260507155131 | 52 | 46 | 3.0 | 4.0 | 0.12 | 0.81 | 0.81 | 99 | 1011.8 |
| 20260507154627 | 52 | 35 | 7.0 | 16.0 | 0.12 | 0.80 | 0.80 | 99 | 1012.0 |
| 20260507154125 | 52 | 22 | 4.0 | 6.0 | 0.12 | 0.79 | 0.79 | 99 | 1011.7 |
| 20260507153621 | 53 | 27 | 4.0 | 7.0 | 0.12 | 0.78 | 0.78 | 99 | 1011.7 |
| 20260507153118 | 53 | 40 | 7.0 | 10.0 | 0.17 | 0.77 | 0.77 | 99 | 1011.5 |
| 20260507152614 | 54 | 3 | 3.0 | 4.0 | 0.19 | 0.76 | 0.76 | 99 | 1011.7 |
| 20260507152110 | 54 | 328 | 2.0 | 4.0 | 0.12 | 0.75 | 0.75 | 99 | 1011.7 |
| 20260507151606 | 54 | 40 | 6.0 | 8.0 | 0.12 | 0.73 | 0.73 | 99 | 1011.9 |
| 20260507151103 | 55 | 47 | 8.0 | 9.0 | 0.12 | 0.72 | 0.72 | 99 | 1011.6 |
| 20260507150555 | 55 | 76 | 4.0 | 6.0 | 0.12 | 0.71 | 0.71 | 99 | 1011.7 |
| 20260507150051 | 55 | 55 | 3.0 | 6.0 | 0.14 | 0.70 | 0.70 | 99 | 1011.4 |
| 20260507145545 | 55 | 54 | 3.0 | 3.0 | 0.12 | 0.69 | 0.69 | 99 | 1011.6 |
| 20260507145044 | 55 | 60 | 6.0 | 7.0 | 0.12 | 0.68 | 0.68 | 99 | 1011.4 |
| 20260507144540 | 55 | 30 | 9.0 | 15.0 | 0.07 | 0.67 | 0.67 | 99 | 1011.3 |
| 20260507144038 | 56 | 47 | 4.0 | 8.0 | 0.12 | 0.67 | 0.67 | 99 | 1011.3 |
| 20260507143534 | 57 | 332 | 2.0 | 3.0 | 0.12 | 0.66 | 0.66 | 99 | 1011.5 |
| 20260507143032 | 57 | 46 | 7.0 | 10.0 | 0.12 | 0.65 | 0.65 | 99 | 1011.1 |
| 20260507142527 | 58 | 31 | 8.0 | 14.0 | 0.12 | 0.64 | 0.64 | 99 | 1011.2 |
| 20260507142024 | 58 | 41 | 8.0 | 9.0 | 0.07 | 0.63 | 0.63 | 99 | 1010.9 |
| 20260507141520 | 58 | 36 | 6.0 | 10.0 | 0.05 | 0.62 | 0.62 | 99 | 1010.9 |
| 20260507141017 | 58 | 19 | 6.0 | 10.0 | 0.17 | 0.62 | 0.62 | 99 | 1011.0 |
| 20260507140514 | 59 | 38 | 5.0 | 8.0 | 0.19 | 0.61 | 0.61 | 99 | 1011.1 |
| 20260507140012 | 59 | 48 | 2.0 | 2.0 | 0.14 | 0.59 | 0.59 | 99 | 1011.0 |
| 20260507135508 | 59 | 30 | 8.0 | 10.0 | 0.12 | 0.58 | 0.58 | 99 | 1011.2 |
| 20260507135006 | 60 | 105 | 3.0 | 6.0 | 0.12 | 0.57 | 0.57 | 99 | 1010.9 |
| 20260507134502 | 60 | 37 | 2.0 | 2.0 | 0.12 | 0.56 | 0.56 | 99 | 1010.8 |
| 20260507133958 | 60 | 47 | 2.0 | 3.0 | 0.17 | 0.55 | 0.55 | 99 | 1010.8 |
| 20260507133454 | 60 | 44 | 2.0 | 4.0 | 0.19 | 0.54 | 0.54 | 98 | 1010.8 |
| 20260507132953 | 60 | 34 | 3.0 | 4.0 | 0.19 | 0.52 | 0.52 | 98 | 1010.9 |
| 20260507132448 | 60 | 33 | 2.0 | 3.0 | 0.17 | 0.51 | 0.51 | 98 | 1010.9 |
| 20260507131945 | 60 | 58 | 2.0 | 4.0 | 0.19 | 0.50 | 0.50 | 98 | 1011.0 |
| 20260507131442 | 60 | 5 | 8.0 | 10.0 | 0.19 | 0.48 | 0.48 | 98 | 1010.9 |
| 20260507130939 | 60 | 355 | 6.0 | 8.0 | 0.24 | 0.47 | 0.47 | 98 | 1011.0 |
| 20260507130436 | 60 | 20 | 6.0 | 7.0 | 0.19 | 0.45 | 0.45 | 98 | 1011.3 |
| 20260507125935 | 60 | 23 | 5.0 | 6.0 | 0.19 | 0.43 | 0.43 | 98 | 1011.1 |
| 20260507125433 | 60 | 26 | 8.0 | 11.0 | 0.24 | 0.42 | 0.42 | 98 | 1011.2 |
| 20260507124930 | 61 | 26 | 4.0 | 6.0 | 0.17 | 0.40 | 0.40 | 98 | 1011.4 |
| 20260507124425 | 61 | 31 | 10.0 | 10.0 | 0.24 | 0.39 | 0.39 | 98 | 1011.3 |
| 20260507123924 | 61 | 22 | 10.0 | 11.0 | 0.24 | 0.37 | 0.37 | 98 | 1011.3 |
| 20260507123421 | 62 | 34 | 11.0 | 13.0 | 0.26 | 0.35 | 0.35 | 98 | 1010.9 |
| 20260507122918 | 65 | 22 | 12.0 | 14.0 | 0.26 | 0.33 | 0.33 | 98 | 1010.9 |
| 20260507122413 | 65 | 328 | 3.0 | 4.0 | 0.24 | 0.31 | 0.31 | 98 | 1010.8 |
| 20260507121909 | 66 | 322 | 2.0 | 2.0 | 0.24 | 0.29 | 0.29 | 98 | 1010.8 |
| 20260507121404 | 66 | 349 | 1.0 | 2.0 | 0.24 | 0.27 | 0.27 | 98 | 1011.0 |
| 20260507120901 | 66 | 336 | 2.0 | 2.0 | 0.17 | 0.25 | 0.25 | 98 | 1010.9 |
| 20260507120358 | 66 | 28 | 0.0 | 0.0 | 0.17 | 0.23 | 0.23 | 98 | 1010.8 |
| 20260507115854 | 66 | 72 | 0.0 | 0.0 | 0.12 | 0.21 | 0.21 | 98 | 1011.0 |
| 20260507115350 | 66 | 57 | 0.0 | 0.0 | 0.19 | 0.20 | 0.20 | 98 | 1010.6 |
| 20260507114846 | 66 | 58 | 0.0 | 0.0 | 0.19 | 0.19 | 0.19 | 97 | 1010.8 |
| 20260507114343 | 66 | 59 | 0.0 | 0.0 | 0.12 | 0.17 | 0.17 | 97 | 1010.8 |
| 20260507113840 | 66 | 44 | 0.0 | 0.0 | 0.17 | 0.16 | 0.16 | 97 | 1010.9 |
| 20260507113337 | 66 | 5 | 1.0 | 2.0 | 0.19 | 0.15 | 0.15 | 97 | 1010.8 |
| 20260507112835 | 66 | 340 | 2.0 | 2.0 | 0.12 | 0.14 | 0.14 | 97 | 1010.8 |
| 20260507112332 | 66 | 75 | 0.0 | 0.0 | 0.05 | 0.12 | 0.12 | 97 | 1010.5 |
| 20260507111830 | 66 | 349 | 2.0 | 2.0 | 0.05 | 0.12 | 0.12 | 97 | 1010.6 |
| 20260507111326 | 66 | 18 | 1.0 | 2.0 | 0.07 | 0.11 | 0.11 | 97 | 1010.6 |
| 20260507110822 | 66 | 296 | 4.0 | 4.0 | 0.19 | 0.11 | 0.11 | 97 | 1010.8 |
| 20260507110319 | 66 | 346 | 2.0 | 2.0 | 0.19 | 0.10 | 0.10 | 97 | 1010.6 |
| 20260507105815 | 66 | 344 | 2.0 | 3.0 | 0.07 | 0.08 | 0.08 | 97 | 1010.7 |
| 20260507105312 | 66 | 328 | 2.0 | 2.0 | 0.05 | 0.07 | 0.07 | 96 | 1010.6 |
| 20260507104809 | 66 | 60 | 0.0 | 0.0 | 0.05 | 0.07 | 0.07 | 96 | 1010.4 |
| 20260507104305 | 66 | 69 | 0.0 | 0.0 | 0.07 | 0.06 | 0.06 | 96 | 1010.4 |
| 20260507103802 | 66 | 112 | 0.0 | 0.0 | 0.07 | 0.06 | 0.06 | 96 | 1010.6 |
| 20260507103258 | 66 | 86 | 0.0 | 1.0 | 0.00 | 0.05 | 0.05 | 96 | 1010.4 |
| 20260507102754 | 66 | 94 | 2.0 | 2.0 | 0.05 | 0.05 | 0.05 | 96 | 1010.1 |
| 20260507102251 | 66 | 171 | 2.0 | 2.0 | 0.05 | 0.05 | 0.05 | 95 | 1010.1 |
| 20260507101747 | 66 | 199 | 2.0 | 2.0 | 0.07 | 0.04 | 0.04 | 95 | 1010.2 |
| 20260507101242 | 66 | 184 | 2.0 | 2.0 | 0.07 | 0.04 | 0.04 | 95 | 1010.1 |
| 20260507100740 | 67 | 223 | 4.0 | 4.0 | 0.00 | 0.03 | 0.03 | 94 | 1009.9 |
| 20260507100238 | 67 | 167 | 2.0 | 3.0 | 0.05 | 0.03 | 0.03 | 94 | 1010.2 |
| 20260507095736 | 67 | 194 | 2.0 | 2.0 | 0.05 | 0.03 | 0.03 | 93 | 1009.9 |
| 20260507095227 | 67 | 185 | 1.0 | 2.0 | 0.00 | 0.02 | 0.02 | 92 | 1010.0 |
| 20260507094724 | 67 | 182 | 2.0 | 3.0 | 0.12 | 0.02 | 0.02 | 91 | 1009.9 |
| 20260507094221 | 68 | 135 | 2.0 | 2.0 | 0.12 | 0.02 | 0.02 | 90 | 1009.8 |
| 20260507093718 | 68 | 151 | 2.0 | 2.0 | 0.00 | 0.00 | 0.00 | 89 | 1009.8 |
| 20260507093216 | 68 | 219 | 3.0 | 3.0 | 0.00 | 0.00 | 0.00 | 88 | 1010.1 |
| 20260507092713 | 68 | 190 | 3.0 | 3.0 | 0.00 | 0.00 | 0.00 | 88 | 1009.6 |
| 20260507092209 | 68 | 106 | 0.0 | 0.0 | 0.00 | 0.00 | 0.00 | 88 | 1009.7 |
| 20260507091706 | 68 | 91 | 0.0 | 1.0 | 0.00 | 0.00 | 0.00 | 88 | 1009.6 |
| 20260507091203 | 68 | 38 | 0.0 | 0.0 | 0.00 | 0.00 | 0.00 | 88 | 1009.7 |
| 20260507090658 | 68 | 130 | 0.0 | 1.0 | 0.00 | 0.00 | 0.00 | 88 | 1009.7 |
| 20260507090155 | 68 | 100 | 1.0 | 1.0 | 0.00 | 0.00 | 0.00 | 88 | 1010.0 |
| 20260507085652 | 68 | 155 | 0.0 | 1.0 | 0.00 | 0.00 | 0.00 | 87 | 1009.9 |
| 20260507085149 | 68 | 48 | 2.0 | 2.0 | 0.00 | 0.00 | 0.00 | 87 | 1010.0 |
| 20260507084645 | 68 | 164 | 0.0 | 0.0 | 0.00 | 0.00 | 0.00 | 87 | 1010.3 |
| 20260507084136 | 68 | 84 | 1.0 | 1.0 | 0.00 | 0.00 | 0.00 | 86 | 1010.2 |
| 20260507083633 | 68 | 79 | 1.0 | 1.0 | 0.00 | 0.00 | 0.00 | 86 | 1010.2 |
| 20260507083130 | 68 | 229 | 2.0 | 2.0 | 0.00 | 0.00 | 0.00 | 85 | 1010.1 |
| 20260507082626 | 69 | 38 | 0.0 | 0.0 | 0.00 | 0.00 | 0.00 | 85 | 1010.4 |
| 20260507082122 | 69 | 231 | 3.0 | 3.0 | 0.00 | 0.00 | 0.00 | 84 | 1010.3 |
| 20260507081619 | 69 | 192 | 5.0 | 7.0 | 0.00 | 0.00 | 0.00 | 84 | 1010.3 |
| 20260507081115 | 68 | 169 | 4.0 | 6.0 | 0.00 | 0.00 | 0.00 | 84 | 1010.4 |
| 20260507080612 | 69 | 207 | 2.0 | 2.0 | 0.00 | 0.00 | 0.00 | 84 | 1010.3 |
| 20260507080108 | 69 | 157 | 4.0 | 6.0 | 0.00 | 0.00 | 0.00 | 84 | 1010.5 |
| 20260507075603 | 69 | 203 | 4.0 | 6.0 | 0.00 | 0.00 | 0.00 | 84 | 1010.6 |
| 20260507075100 | 69 | 270 | 4.0 | 4.0 | 0.00 | 0.00 | 0.00 | 84 | 1010.7 |
| 20260507074557 | 69 | 221 | 3.0 | 3.0 | 0.00 | 0.00 | 0.00 | 84 | 1010.7 |
| 20260507074055 | 68 | 208 | 2.0 | 2.0 | 0.00 | 0.00 | 0.00 | 84 | 1010.7 |
| 20260507073551 | 68 | 194 | 4.0 | 4.0 | 0.00 | 0.00 | 0.00 | 85 | 1010.6 |
| 20260507073047 | 68 | 205 | 4.0 | 4.0 | 0.00 | 0.00 | 0.00 | 86 | 1010.7 |
| 20260507072545 | 68 | 196 | 4.0 | 4.0 | 0.00 | 0.00 | 0.00 | 87 | 1010.9 |
| 20260507072042 | 67 | 190 | 3.0 | 3.0 | 0.00 | 0.00 | 0.00 | 87 | 1010.9 |
| 20260507071539 | 67 | 172 | 2.0 | 3.0 | 0.00 | 0.00 | 0.00 | 87 | 1010.8 |
| 20260507071035 | 67 | 204 | 2.0 | 2.0 | 0.00 | 0.00 | 0.00 | 87 | 1010.7 |
| 20260507070533 | 68 | 75 | 1.0 | 1.0 | 0.00 | 0.00 | 0.00 | 86 | 1010.8 |
| 20260507070030 | 68 | 65 | 0.0 | 1.0 | 0.00 | 0.00 | 0.00 | 86 | 1010.6 |
| 20260507065526 | 68 | 77 | 1.0 | 1.0 | 0.00 | 0.00 | 0.00 | 85 | 1010.3 |
| 20260507065023 | 68 | 173 | 2.0 | 3.0 | 0.00 | 0.00 | 0.00 | 84 | 1010.1 |
| 20260507064521 | 69 | 159 | 1.0 | 2.0 | 0.00 | 0.00 | 0.00 | 84 | 1009.9 |
| 20260507064019 | 69 | 208 | 2.0 | 2.0 | 0.00 | 0.00 | 0.00 | 83 | 1009.9 |
| 20260507063516 | 69 | 97 | 1.0 | 1.0 | 0.00 | 0.00 | 0.00 | 83 | 1009.9 |
| 20260507063014 | 69 | 187 | 2.0 | 3.0 | 0.00 | 0.00 | 0.00 | 83 | 1009.8 |
| 20260507062510 | 68 | 197 | 2.0 | 2.0 | 0.00 | 0.00 | 0.00 | 84 | 1010.7 |
| 20260507062008 | 68 | 192 | 3.0 | 4.0 | 0.00 | 0.00 | 0.00 | 85 | 1011.4 |
| 20260507061505 | 68 | 198 | 3.0 | 3.0 | 0.00 | 0.00 | 0.00 | 84 | 1011.4 |
| 20260507061003 | 68 | 188 | 2.0 | 2.0 | 0.00 | 0.00 | 0.00 | 85 | 1011.6 |
| 20260507060500 | 68 | 226 | 2.0 | 2.0 | 0.00 | 0.00 | 0.00 | 84 | 1011.6 |
| 20260507055956 | 68 | 150 | 2.0 | 2.0 | 0.00 | 0.00 | 0.00 | 84 | 1011.5 |
| 20260507055452 | 68 | 181 | 2.0 | 2.0 | 0.00 | 0.00 | 0.00 | 83 | 1011.3 |
| 20260507054949 | 68 | 57 | 1.0 | 1.0 | 0.00 | 0.00 | 0.00 | 83 | 1011.7 |
| 20260507054444 | 69 | 185 | 2.0 | 2.0 | 0.00 | 0.00 | 0.00 | 82 | 1011.7 |
| 20260507053942 | 69 | 142 | 1.0 | 2.0 | 0.00 | 0.00 | 0.00 | 81 | 1011.6 |
| 20260507053440 | 69 | 165 | 1.0 | 2.0 | 0.00 | 0.00 | 0.00 | 79 | 1011.7 |
| 20260507052938 | 70 | 172 | 2.0 | 2.0 | 0.00 | 0.00 | 0.00 | 78 | 1011.6 |
| 20260507052435 | 70 | 136 | 2.0 | 2.0 | 0.00 | 0.00 | 0.00 | 75 | 1011.7 |
| 20260507051932 | 71 | 68 | 1.0 | 2.0 | 0.00 | 0.00 | 0.00 | 74 | 1011.5 |
| 20260507051430 | 71 | 217 | 3.0 | 4.0 | 0.00 | 0.00 | 0.00 | 72 | 1011.7 |
| 20260507050926 | 71 | 211 | 4.0 | 6.0 | 0.00 | 0.00 | 0.00 | 72 | 1011.6 |
| 20260507050418 | 71 | 187 | 4.0 | 6.0 | 0.00 | 0.00 | 0.00 | 72 | 1011.5 |
| 20260507045915 | 71 | 205 | 4.0 | 4.0 | 0.00 | 0.00 | 0.00 | 72 | 1011.3 |
| 20260507045411 | 71 | 182 | 3.0 | 3.0 | 0.00 | 0.00 | 0.00 | 71 | 1011.3 |
| 20260507044908 | 71 | 133 | 3.0 | 3.0 | 0.00 | 0.00 | 0.00 | 71 | 1011.3 |
| 20260507044404 | 71 | 200 | 5.0 | 7.0 | 0.00 | 0.00 | 0.00 | 71 | 1011.5 |
| 20260507043901 | 71 | 175 | 4.0 | 6.0 | 0.00 | 0.00 | 0.00 | 70 | 1011.6 |
| 20260507043357 | 71 | 213 | 3.0 | 4.0 | 0.00 | 0.00 | 0.00 | 70 | 1011.5 |
| 20260507042853 | 72 | 179 | 4.0 | 7.0 | 0.00 | 0.00 | 0.00 | 69 | 1011.5 |
| 20260507042350 | 72 | 215 | 6.0 | 8.0 | 0.00 | 0.00 | 0.00 | 69 | 1011.5 |
| 20260507041846 | 72 | 188 | 5.0 | 6.0 | 0.00 | 0.00 | 0.00 | 69 | 1011.5 |
| 20260507041343 | 72 | 219 | 6.0 | 7.0 | 0.00 | 0.00 | 0.00 | 68 | 1011.6 |
| 20260507040840 | 72 | 221 | 4.0 | 4.0 | 0.00 | 0.00 | 0.00 | 68 | 1011.3 |
| 20260507040336 | 72 | 184 | 7.0 | 9.0 | 0.00 | 0.00 | 0.00 | 68 | 1011.2 |
| 20260507035832 | 72 | 198 | 6.0 | 7.0 | 0.00 | 0.00 | 0.00 | 68 | 1011.1 |
| 20260507035328 | 72 | 185 | 4.0 | 7.0 | 0.00 | 0.00 | 0.00 | 68 | 1011.0 |
| 20260507034826 | 72 | 188 | 6.0 | 9.0 | 0.00 | 0.00 | 0.00 | 67 | 1011.3 |
| 20260507034322 | 72 | 203 | 4.0 | 4.0 | 0.00 | 0.00 | 0.00 | 67 | 1011.4 |
| 20260507033820 | 72 | 223 | 4.0 | 6.0 | 0.00 | 0.00 | 0.00 | 67 | 1011.3 |
| 20260507033318 | 72 | 228 | 4.0 | 6.0 | 0.00 | 0.00 | 0.00 | 67 | 1011.1 |
| 20260507032815 | 72 | 196 | 4.0 | 6.0 | 0.00 | 0.00 | 0.00 | 67 | 1011.1 |
| 20260507032311 | 72 | 187 | 3.0 | 3.0 | 0.00 | 0.00 | 0.00 | 67 | 1011.3 |
| 20260507031808 | 72 | 204 | 4.0 | 6.0 | 0.00 | 0.00 | 0.00 | 67 | 1011.4 |
| 20260507031304 | 72 | 157 | 2.0 | 3.0 | 0.00 | 0.00 | 0.00 | 67 | 1011.2 |
| 20260507030801 | 72 | 183 | 3.0 | 3.0 | 0.00 | 0.00 | 0.00 | 67 | 1011.4 |
| 20260507030259 | 72 | 220 | 4.0 | 4.0 | 0.00 | 0.00 | 0.00 | 68 | 1011.3 |
| 20260507025755 | 72 | 179 | 2.0 | 2.0 | 0.00 | 0.00 | 0.00 | 69 | 1011.3 |
| 20260507025253 | 72 | 194 | 4.0 | 4.0 | 0.00 | 0.00 | 0.00 | 69 | 1011.6 |
| 20260507024751 | 72 | 181 | 2.0 | 2.0 | 0.00 | 0.00 | 0.00 | 70 | 1011.7 |
| 20260507024248 | 72 | 192 | 3.0 | 3.0 | 0.00 | 0.00 | 0.00 | 70 | 1011.7 |
| 20260507023743 | 72 | 181 | 1.0 | 1.0 | 0.00 | 0.00 | 0.00 | 70 | 1011.7 |
| 20260507023240 | 73 | 165 | 1.0 | 1.0 | 0.00 | 0.00 | 0.00 | 70 | 1011.7 |
| 20260507022738 | 73 | 176 | 2.0 | 2.0 | 0.00 | 0.00 | 0.00 | 68 | 1011.7 |
| 20260507022233 | 73 | 221 | 2.0 | 2.0 | 0.00 | 0.00 | 0.00 | 68 | 1011.7 |
| 20260507021730 | 74 | 212 | 3.0 | 3.0 | 0.00 | 0.00 | 0.00 | 68 | 1011.7 |
| 20260507021225 | 74 | 212 | 2.0 | 3.0 | 0.00 | 0.00 | 0.00 | 68 | 1011.6 |
| 20260507020724 | 74 | 183 | 4.0 | 4.0 | 0.00 | 0.00 | 0.00 | 67 | 1011.4 |
| 20260507020220 | 74 | 194 | 6.0 | 8.0 | 0.00 | 0.00 | 0.00 | 67 | 1011.7 |
| 20260507015718 | 74 | 197 | 3.0 | 4.0 | 0.00 | 0.00 | 0.00 | 67 | 1011.9 |
| 20260507015215 | 75 | 207 | 4.0 | 4.0 | 0.00 | 0.00 | 0.00 | 67 | 1011.9 |
| 20260507014711 | 75 | 206 | 4.0 | 6.0 | 0.00 | 0.00 | 0.00 | 67 | 1011.9 |
| 20260507014208 | 75 | 184 | 4.0 | 4.0 | 0.00 | 0.00 | 0.00 | 67 | 1011.8 |
| 20260507013704 | 75 | 216 | 5.0 | 7.0 | 0.00 | 0.00 | 0.00 | 68 | 1011.6 |
| 20260507013202 | 75 | 190 | 6.0 | 8.0 | 0.00 | 0.00 | 0.00 | 67 | 1011.5 |
| 20260507012659 | 76 | 205 | 5.0 | 6.0 | 0.00 | 0.00 | 0.00 | 67 | 1011.7 |
| 20260507012154 | 76 | 229 | 7.0 | 11.0 | 0.00 | 0.00 | 0.00 | 66 | 1011.8 |
| 20260507011653 | 76 | 202 | 5.0 | 7.0 | 0.00 | 0.00 | 0.00 | 67 | 1011.7 |
| 20260507011148 | 76 | 208 | 4.0 | 4.0 | 0.00 | 0.00 | 0.00 | 68 | 1011.8 |
| 20260507010643 | 76 | 222 | 4.0 | 6.0 | 0.00 | 0.00 | 0.00 | 68 | 1011.8 |
| 20260507010139 | 76 | 190 | 6.0 | 8.0 | 0.00 | 0.00 | 0.00 | 68 | 1011.8 |
| 20260507005637 | 76 | 218 | 6.0 | 8.0 | 0.00 | 0.00 | 0.00 | 69 | 1011.8 |
| 20260507005133 | 76 | 183 | 3.0 | 4.0 | 0.00 | 0.00 | 0.00 | 70 | 1011.7 |
| 20260507004630 | 76 | 204 | 4.0 | 4.0 | 0.00 | 0.00 | 0.00 | 70 | 1011.6 |
| 20260507004128 | 76 | 194 | 3.0 | 3.0 | 0.00 | 0.00 | 0.00 | 70 | 1011.5 |
| 20260507003624 | 76 | 214 | 5.0 | 7.0 | 0.00 | 0.00 | 0.00 | 70 | 1011.5 |
| 20260507003119 | 76 | 184 | 5.0 | 6.0 | 0.00 | 0.00 | 0.00 | 70 | 1011.2 |
| 20260507002615 | 76 | 180 | 6.0 | 7.0 | 0.00 | 0.00 | 0.00 | 69 | 1011.4 |
| 20260507002111 | 76 | 217 | 7.0 | 9.0 | 0.00 | 0.00 | 0.00 | 69 | 1011.3 |
| 20260507001608 | 76 | 187 | 4.0 | 4.0 | 0.00 | 0.00 | 0.00 | 70 | 1011.2 |
| 20260507001106 | 76 | 200 | 4.0 | 4.0 | 0.00 | 0.00 | 0.00 | 69 | 1011.2 |
| 20260507000602 | 76 | 197 | 5.0 | 7.0 | 0.00 | 0.00 | 0.00 | 70 | 1010.9 |
| 20260507000057 | 77 | 198 | 5.0 | 7.0 | 0.00 | 0.00 | 0.00 | 69 | 1011.1 |
| 20260506235555 | 77 | 196 | 5.0 | 7.0 | 0.00 | 0.00 | 0.00 | 69 | 1011.3 |
| 20260506235050 | 77 | 189 | 5.0 | 6.0 | 0.00 | 0.00 | 0.00 | 68 | 1011.1 |
| 20260506234548 | 77 | 190 | 4.0 | 6.0 | 0.00 | 0.00 | 0.00 | 68 | 1010.9 |
| 20260506234045 | 77 | 206 | 3.0 | 3.0 | 0.00 | 0.00 | 0.00 | 68 | 1010.9 |
| 20260506233542 | 77 | 200 | 2.0 | 3.0 | 0.00 | 0.00 | 0.00 | 67 | 1010.5 |
| 20260506233039 | 77 | 181 | 3.0 | 3.0 | 0.00 | 0.00 | 0.00 | 67 | 1010.7 |
| 20260506232535 | 77 | 192 | 5.0 | 6.0 | 0.00 | 0.00 | 0.00 | 66 | 1010.8 |
| 20260506232030 | 77 | 182 | 4.0 | 6.0 | 0.00 | 0.00 | 0.00 | 66 | 1010.8 |
| 20260506231528 | 77 | 197 | 3.0 | 3.0 | 0.00 | 0.00 | 0.00 | 66 | 1010.7 |
| 20260506231021 | 77 | 172 | 3.0 | 3.0 | 0.00 | 0.00 | 0.00 | 65 | 1010.8 |
| 20260506230516 | 78 | 203 | 4.0 | 6.0 | 0.00 | 0.00 | 0.00 | 63 | 1010.7 |
| 20260506230014 | 77 | 202 | 4.0 | 4.0 | 0.00 | 0.00 | 0.00 | 64 | 1010.6 |
| 20260506225510 | 78 | 188 | 2.0 | 3.0 | 0.00 | 0.00 | 0.00 | 63 | 1010.4 |
| 20260506225006 | 78 | 182 | 3.0 | 3.0 | 0.00 | 0.00 | 0.00 | 62 | 1010.4 |
| 20260506224503 | 78 | 200 | 3.0 | 3.0 | 0.00 | 0.00 | 0.00 | 61 | 1010.3 |
| 20260506224000 | 79 | 198 | 4.0 | 4.0 | 0.00 | 0.00 | 0.00 | 60 | 1010.5 |
| 20260506223456 | 79 | 182 | 4.0 | 6.0 | 0.00 | 0.00 | 0.00 | 60 | 1010.6 |
| 20260506222953 | 79 | 188 | 4.0 | 6.0 | 0.00 | 0.00 | 0.00 | 59 | 1010.3 |
| 20260506222450 | 79 | 184 | 3.0 | 3.0 | 0.00 | 0.00 | 0.00 | 59 | 1010.7 |
| 20260506221946 | 79 | 181 | 5.0 | 6.0 | 0.00 | 0.00 | 0.00 | 59 | 1010.6 |
| 20260506221444 | 79 | 199 | 4.0 | 6.0 | 0.00 | 0.00 | 0.00 | 59 | 1010.7 |
| 20260506220942 | 79 | 195 | 6.0 | 7.0 | 0.00 | 0.00 | 0.00 | 59 | 1010.7 |
| 20260506220437 | 79 | 230 | 5.0 | 7.0 | 0.00 | 0.00 | 0.00 | 59 | 1010.4 |
| 20260506215933 | 79 | 201 | 4.0 | 6.0 | 0.00 | 0.00 | 0.00 | 59 | 1010.4 |
| 20260506215430 | 79 | 188 | 6.0 | 7.0 | 0.00 | 0.00 | 0.00 | 59 | 1010.8 |
| 20260506214926 | 79 | 196 | 7.0 | 8.0 | 0.00 | 0.00 | 0.00 | 58 | 1010.4 |
| 20260506214423 | 80 | 202 | 4.0 | 6.0 | 0.00 | 0.00 | 0.00 | 59 | 1010.7 |
| 20260506213920 | 80 | 207 | 4.0 | 4.0 | 0.00 | 0.00 | 0.00 | 59 | 1010.3 |
| 20260506213418 | 80 | 222 | 6.0 | 7.0 | 0.00 | 0.00 | 0.00 | 58 | 1010.3 |
| 20260506212915 | 80 | 211 | 3.0 | 3.0 | 0.00 | 0.00 | 0.00 | 59 | 1010.1 |
| 20260506212411 | 80 | 198 | 6.0 | 7.0 | 0.00 | 0.00 | 0.00 | 56 | 1010.2 |
| 20260506211906 | 80 | 188 | 8.0 | 11.0 | 0.00 | 0.00 | 0.00 | 55 | 1010.5 |
| 20260506211402 | 80 | 199 | 8.0 | 13.0 | 0.00 | 0.00 | 0.00 | 55 | 1010.5 |
| 20260506210859 | 80 | 177 | 9.0 | 11.0 | 0.00 | 0.00 | 0.00 | 55 | 1010.5 |
| 20260506210356 | 80 | 211 | 4.0 | 6.0 | 0.00 | 0.00 | 0.00 | 57 | 1010.7 |
| 20260506205854 | 80 | 232 | 6.0 | 8.0 | 0.00 | 0.00 | 0.00 | 56 | 1010.8 |
| 20260506205349 | 80 | 241 | 6.0 | 7.0 | 0.00 | 0.00 | 0.00 | 56 | 1010.8 |
| 20260506204846 | 80 | 217 | 9.0 | 11.0 | 0.00 | 0.00 | 0.00 | 55 | 1010.9 |
| 20260506204344 | 80 | 181 | 7.0 | 9.0 | 0.00 | 0.00 | 0.00 | 55 | 1011.2 |
| 20260506203841 | 80 | 203 | 8.0 | 9.0 | 0.00 | 0.00 | 0.00 | 55 | 1011.2 |
| 20260506203338 | 81 | 337 | 2.0 | 2.0 | 0.00 | 0.00 | 0.00 | 55 | 1011.2 |
| 20260506202835 | 80 | 203 | 4.0 | 7.0 | 0.00 | 0.00 | 0.00 | 56 | 1011.6 |
| 20260506202332 | 81 | 207 | 10.0 | 11.0 | 0.00 | 0.00 | 0.00 | 55 | 1011.4 |
| 20260506201828 | 81 | 189 | 7.0 | 10.0 | 0.00 | 0.00 | 0.00 | 55 | 1011.4 |
| 20260506201326 | 80 | 210 | 9.0 | 11.0 | 0.00 | 0.00 | 0.00 | 56 | 1011.7 |
| 20260506200822 | 80 | 233 | 8.0 | 8.0 | 0.00 | 0.00 | 0.00 | 56 | 1011.6 |
| 20260506200318 | 80 | 202 | 7.0 | 9.0 | 0.00 | 0.00 | 0.00 | 56 | 1011.7 |
| 20260506195815 | 80 | 194 | 11.0 | 15.0 | 0.00 | 0.00 | 0.00 | 56 | 1011.9 |
| 20260506195312 | 80 | 210 | 10.0 | 13.0 | 0.00 | 0.00 | 0.00 | 56 | 1012.1 |
| 20260506194809 | 80 | 188 | 9.0 | 11.0 | 0.00 | 0.00 | 0.00 | 57 | 1012.1 |
| 20260506194305 | 80 | 202 | 8.0 | 9.0 | 0.00 | 0.00 | 0.00 | 59 | 1012.0 |
| 20260506193803 | 81 | 218 | 8.0 | 9.0 | 0.00 | 0.00 | 0.00 | 58 | 1012.1 |
| 20260506193300 | 80 | 190 | 6.0 | 8.0 | 0.00 | 0.00 | 0.00 | 59 | 1012.1 |
| 20260506192756 | 80 | 175 | 5.0 | 6.0 | 0.00 | 0.00 | 0.00 | 60 | 1012.1 |
| 20260506192253 | 79 | 192 | 8.0 | 9.0 | 0.00 | 0.00 | 0.00 | 60 | 1012.1 |